Location: Newark
(35.8833°N, 14.5000°E)
Time: 03:06:26
(UTC+00:00)

Altair - Pass Details

Date: 29 November 2019
Orbit: 1502 x 1682 km, 47.2° (Epoch: 09 December)

Event Time Altitude Azimuth Distance (km) Brightness Sun altitude
Rises 06:06:00 0° 302° (WNW) 4,638 9.3 1.8°
Reaches altitude 10° 06:09:02 10° 299° (WNW) 3,662 8.8 2.3°
Maximum altitude 06:18:01 60° 223° (SW) 1,718 7.8 3.9°
Drops below altitude 10° 06:27:15 10° 146° (SE) 3,754 11.0 5.5°
Sets 06:30:25 0° 143° (SE) 4,761 11.6 6.0°
